This is the latest recevied weather packets stored in our database for station/object W7TRD. If no packets are shown the sender has not sent any weather packets the latest 10 day(s).
| Time | Temp. | Humidity | Pressure | Rain* | Wind** | Luminosity | Snow |
|---|---|---|---|---|---|---|---|
| 1777642204 | 10.56° C | 90% | 1017.1 hPa | 0 mm | - | 26 W/m² | - |
| 1777641902 | 10.56° C | 91% | 1017.1 hPa | 0 mm | - | 22 W/m² | - |
| 1777641602 | 10.56° C | 91% | 1017.3 hPa | 0 mm | - | 17 W/m² | - |
| 1777641302 | 10° C | 91% | 1016.9 hPa | 0 mm | - | 12 W/m² | - |
| 1777640998 | 10° C | 91% | 1016.9 hPa | 0 mm | - | 8 W/m² | - |
| 1777640695 | 10° C | 92% | 1017 hPa | 0 mm | - | 5 W/m² | - |
| 1777640391 | 9.44° C | 93% | 1016.9 hPa | 0 mm | - | 3 W/m² | - |
| 1777640088 | 9.44° C | 92% | 1016.8 hPa | 0 mm | - | 2 W/m² | - |
| 1777639785 | 10° C | 92% | 1016.8 hPa | 0 mm | - | 1 W/m² | - |
| 1777639483 | 10° C | 92% | 1016.7 hPa | 0 mm | - | 0 W/m² | - |
| 1777639179 | 10° C | 92% | 1016.8 hPa | 0 mm | - | 0 W/m² | - |
| 1777638876 | 10° C | 91% | 1016.8 hPa | 0 mm | - | 0 W/m² | - |
| 1777638571 | 10° C | 91% | 1016.9 hPa | 0 mm | - | 0 W/m² | - |
| 1777638268 | 10° C | 91% | 1016.7 hPa | 0 mm | - | 0 W/m² | - |
| 1777637964 | 10° C | 91% | 1016.9 hPa | 0 mm | - | 0 W/m² | - |
| 1777637660 | 10.56° C | 90% | 1016.8 hPa | 0 mm | - | 0 W/m² | - |
| 1777637358 | 10.56° C | 89% | 1016.9 hPa | 0 mm | - | 0 W/m² | - |
| 1777637055 | 10.56° C | 89% | 1017 hPa | 0 mm | - | 0 W/m² | - |
| 1777636750 | 10.56° C | 87% | 1016.7 hPa | 0 mm | - | 0 W/m² | - |
| 1777636446 | 11.11° C | 87% | 1016.7 hPa | 0 mm | - | 0 W/m² | - |
| 1777636142 | 11.11° C | 87% | 1016.5 hPa | 0 mm | - | 0 W/m² | - |
| 1777635837 | 11.11° C | 87% | 1016.7 hPa | 0 mm | - | 0 W/m² | - |
| 1777635534 | 11.11° C | 87% | 1016.9 hPa | 0 mm | - | 0 W/m² | - |
| 1777635231 | 11.11° C | 88% | 1016.8 hPa | 0 mm | - | 0 W/m² | - |
| 1777634927 | 10.56° C | 88% | 1016.8 hPa | 0 mm | - | 0 W/m² | - |
* Rain latest hour (hover to see other rain measurements)
** Current wind speed in m/s (hover to see current wind gust speed)